ONEWEB-0295, 49084

Orbit data source: Space-Track

ONEWEB-0295, 49084 is a payload satellite owned by One Web (NAA) (UK) in LEO that was launched on Sat, 21 Aug 2021 UTC via a SOYUZ-2-1B launch vehicle from the Tyuratam Missile And Space Complex (TTMTR). Payload-class satellites include a variety of spacecraft equipped with specific instruments for various scientific and technological missions. These include communications satellites like Starlink; space stations such as the ISS; scientific satellites like the Hubble; Earth observation satellites from companies like Planet Labs, Umbra, and HawkEye 360; GPS; miniature CubeSats for education and research; and military/defense satellites.

Loading next visibility...
Identifier
49084, 2021-075K
Orbit
LEO
Country
Flag of UKUK
Related business
Manufacturer
One Web
Mission
Operational Commercial Communications
Bus & Motor
ARROW, Unknown motor
Mass
148 kg wet, ~140 kg dry
Launch date (UTC)
2021-08-21 (5 years ago)
Launch vehicle
SOYUZ-2-1B
Launch site
Tyuratam Missile And Space Complex (TTMTR)
Object type
Payload
Rocket body
Debris
Shape & HBR
Trap Box + 2 Pan, 6.7 m
Radar Cross Section
3.464 m², Large (>1 m²)

Expand to show TLE details & history
Last TLE update: 21 hours ago

TLE from 21 hours ago
0 ONEWEB-0295
1 49084U 21075K   26175.24981435  .00000026  00000-0  33731-4 0  9996
2 49084  87.9129   4.4639 0002201  88.0061 272.1323 13.17648756234521
Epoch: 2026-06-24T05:59Z
TLE epoch observation values (Epoch: 2026-06-24T05:59:43.959Z)
Latitude
Longitude
2.12101°
Altitude
1,196.551 km
Speed
7.256 km/s
True Right ascension
00h 17m 51s
True Declination
0° 00' 00"
Sunlit
Object was in daylight at epoch
Visualization orbit readout
Latitude
Unknown
Longitude
Unknown
Altitude
Unknown
Speed
Unknown
Apparent Right ascension
Unknown
Apparent Declination
Unknown
Sunlit
N/A
Visualization observer readout
Local Sidereal Time
13:56:49
Azimuth
Unknown
Elevation
Unknown
Doppler factor
Unknown
Orbital elements
Apogee altitude
1,192.489 km
Perigee altitude
1,189.157 km
Semi-major axis
7,568.96 km
Eccentricity
0.00022
Inclination
87.9129°
RAAN
4.4639°
Arg. of periapsis
88.0061°
True anomaly
272.1071°
Mean anomaly
272.1323°
Eccentric anomaly
272.1197°
Mean motion
3.29601 °/min
Orbital period
109.22 mins
BSTAR
0.000033731
Loading maneuver chart data...
Computing Atmospheric mass density...
Loading historical data...
Loading historical data...
Loading historical data...
Loading historical data...
Loading historical data...
Loading historical data...
Loading historical data...

Documentation

Showing up to 5 results
|